{"data":{"norad_id":62403,"intl_designator":"2024-247AC","name":"BANDWAGON-2 OBJECT AC","alt_names":[],"object_type":"PAYLOAD","status":"ACTIVE","operator":null,"country":"TBD","launch_date":"2024-12-21","launch_site_code":"AFWTR","launch_vehicle":null,"mission":null,"orbit_class":"UNKNOWN","rcs_meters":null,"size_class":null,"mass_kg":null,"dimensions":null,"purposes":[],"wikipedia_slug":null,"has_3d_model":false,"image_url":null,"decayed_at":null,"tle_current":{"epoch":"2026-09-21T06:38:02.953248Z","epoch_age_seconds":245113,"freshness":"STALE","line1":"1 62403U 24247AC  26264.27642307  .00018384  00000+0  41935-3 0  9993","line2":"2 62403  45.0014 100.8719 0004510 209.4773 150.5862 15.42679510 97989","mean_motion":15.4267951,"eccentricity":0.000451,"inclination_deg":45.0014,"raan_deg":100.8719,"arg_perigee_deg":209.4773,"mean_anomaly_deg":150.5862,"bstar":0.00041935,"rev_number":9798,"period_min":93.344080262011,"perigee_km":435.13074781369,"apogee_km":441.27908822374,"semimajor_km":6816.3419180187,"source":"CELESTRAK","updated_at":"2026-09-23T09:00:21.397203Z"}}}